sat.trackr.live / text

‹ back to catalog

STARLINK-2431

NORAD 47839 · 2021-018BE

PAYLOAD ACTIVE UNKNOWN

§ Identity

Operator
Country
US
Launch date
2021-03-11
Launch site
AFETR
Launch vehicle
Mass (kg)
RCS (m²)

Purposes: comms

External: N2YO · Heavens-Above · Gunter

§ Orbital elements

Epoch: 2026-09-20T01:43:08.482080Z

Period
94.01 min
Inclination
53.1608°
Eccentricity
0.0000887
Mean motion
15.31703549 rev/d
Perigee alt
470.1 km
Apogee alt
471.3 km
Semi-major
6,848.9 km
B*
-2.6451e-5
RAAN
32.3456°
Arg perigee
81.8349°
Mean anomaly
278.2753°
Rev number
30,688

§ Raw data

STARLINK-24311 47839U 21018BE  26263.07162595 -.00001186  00000+0 -26451-4 0  99962 47839  53.1608  32.3456 0000887  81.8349 278.2753 15.31703549306882

JSON: /api/v1/satellites/47839 · /tle

For live sub-satellite position, see the globe view (requires WebGL).

§ Visibility from observer

Set your observer location to see the next 7 days of passes ≥ 10°. The values pass through the URL so the page stays shareable.

No JS? Fill the form by hand. The geolocation button needs JavaScript.